TimeMDT,TemperatureF,Dew PointF,Humidity,Sea Level PressureIn,VisibilityMPH,Wind Direction,Wind SpeedMPH,Gust SpeedMPH,PrecipitationIn,Events,Conditions,WindDirDegrees,DateUTC
12:51 AM,39.0,21.9,50,29.98,10.0,SE,17.3,-,N/A,,Clear,140,2013-04-03 06:51:00
1:51 AM,39.0,21.0,49,29.96,10.0,SSE,16.1,-,N/A,,Clear,150,2013-04-03 07:51:00
2:51 AM,34.0,21.0,59,29.95,10.0,East,8.1,-,N/A,,Clear,80,2013-04-03 08:51:00
3:51 AM,35.1,21.0,57,29.93,10.0,SE,10.4,-,N/A,,Clear,140,2013-04-03 09:51:00
4:51 AM,32.0,21.0,64,29.92,10.0,ESE,6.9,-,N/A,,Clear,110,2013-04-03 10:51:00
5:51 AM,30.0,21.0,69,29.91,10.0,East,4.6,-,N/A,,Partly Cloudy,100,2013-04-03 11:51:00
6:51 AM,30.9,21.9,69,29.91,10.0,Calm,Calm,-,N/A,,Clear,0,2013-04-03 12:51:00
7:51 AM,46.0,23.0,40,29.93,10.0,West,10.4,-,N/A,,Scattered Clouds,260,2013-04-03 13:51:00
9:51 AM,55.9,25.0,30,29.92,10.0,West,18.4,-,N/A,,Mostly Cloudy,280,2013-04-03 15:51:00
10:51 AM,57.9,27.0,31,29.92,10.0,West,16.1,-,N/A,,Clear,280,2013-04-03 16:51:00
11:51 AM,63.0,30.0,29,29.92,10.0,NW,20.7,26.5,N/A,,Partly Cloudy,310,2013-04-03 17:51:00
12:51 PM,64.0,30.0,28,29.92,10.0,West,19.6,32.2,N/A,,Clear,280,2013-04-03 18:51:00
1:51 PM,66.0,28.9,25,29.93,10.0,WNW,23.0,34.5,N/A,,Partly Cloudy,300,2013-04-03 19:51:00
2:51 PM,60.1,35.1,39,29.99,10.0,NNW,27.6,36.8,N/A,,Clear,340,2013-04-03 20:51:00
3:51 PM,55.0,33.1,43,30.04,10.0,North,23.0,28.8,N/A,,Clear,10,2013-04-03 21:51:00
4:51 PM,52.0,28.9,41,30.09,10.0,North,27.6,32.2,N/A,,Clear,10,2013-04-03 22:51:00
5:51 PM,48.0,25.0,41,30.14,10.0,North,19.6,-,N/A,,Clear,10,2013-04-03 23:51:00
6:51 PM,46.0,21.9,39,30.17,10.0,NNE,16.1,-,N/A,,Partly Cloudy,20,2013-04-04 00:51:00
7:51 PM,41.0,24.1,51,30.17,10.0,NNE,11.5,-,N/A,,Clear,30,2013-04-04 01:51:00
9:51 PM,34.0,24.1,67,30.19,10.0,North,4.6,-,N/A,,Clear,360,2013-04-04 03:51:00
10:51 PM,32.0,23.0,69,30.19,10.0,NW,3.5,-,N/A,,Partly Cloudy,310,2013-04-04 04:51:00
11:51 PM,33.1,21.9,64,30.17,10.0,North,5.8,-,N/A,,Overcast,350,2013-04-04 05:51:00